Location: Damada
(14.7329°N, 3.1761°W)
Time: 00:47:54
(UTC+00:00)

Ariane H10+ - Pass Details

Date: 18 February 2020
Orbit: 237 x 8366 km, 6.8° (Epoch: 04 April)

Event Time Altitude Azimuth Distance (km) Brightness Sun altitude
Rises 18:34:35 0° 244° (WSW) 2,393 6.5 -4.8°
Maximum altitude 18:38:41 11° 184° (S) 982 2.8 -5.8°
Drops below altitude 10° 18:39:08 10° 170° (S) 980 2.7 -5.9°
Enters shadow 18:41:12 - 126° (SE) 1,517 3.2 -6.4°
